QPF
0.00 0.00 0.00 0.01 0.00 0.00 0.00 0.00 0.00 0.00 0.00 0.00 0.00 0.00 0.00 0.00 0.00 0.00 0.00 0.00 0.00 0.00 0.00 0.00 0.04 0.07 0.09 0.08 0.09 0.21 0.30 0.27 0.26 0.24 0.15 0.18 0.20 0.23 0.16 0.10 0.17 0.08 0.04
0.00 0.00 0.00 0.01 0.00 0.00 0.00 0.00 0.00 0.00 0.00 0.00 0.00 0.00 0.00 0.00 0.00 0.00 0.00 0.00 0.00 0.00 0.00 0.01 0.07 0.16 0.15 0.18 0.12 0.23 0.29 0.15 0.10 0.09 0.08 0.06 0.12 0.20 0.24 0.17 0.11 0.13 0.13
0.00 0.00 0.00 0.00 0.00 0.00 0.00 0.00 0.00 0.00 0.00 0.00 0.00 0.00 0.00 0.00 0.00 0.00 0.00 0.00 0.00 0.00 0.00 0.00 0.00 0.00 0.03 0.13 0.13 0.18 0.10 0.03 0.01 0.00 0.00 0.01 0.02 0.09 0.16 0.20 0.21 0.16 0.18
0.00 0.00 0.02 0.00 0.00 0.00 0.00 0.00 0.00 0.00 0.00 0.00 0.00 0.00 0.00 0.00 0.00 0.00 0.00 0.00 0.00 0.00 0.00 0.00 0.00 0.00 0.00 0.00 0.00 0.02 0.02 0.01 0.01 0.00 0.00 0.01 0.03 0.03 0.08 0.16 0.19 0.19 0.21
0.00 0.00 0.00 0.00 0.00 0.00 0.00 0.00 0.00 0.00 0.00 0.00 0.00 0.00 0.00 0.00 0.00 0.00 0.00 0.00 0.00 0.00 0.00 0.00 0.00 0.00 0.00 0.00 0.00 0.00 0.00 0.00 0.00 0.00 0.00 0.01 0.02 0.01 0.02 0.07 0.15 0.16 0.18
0.00 0.00 0.00 0.00 0.00 0.00 0.00 0.00 0.00 0.00 0.00 0.01 0.00 0.00 0.00 0.00 0.00 0.00 0.00 0.00 0.00 0.00 0.00 0.00 0.00 0.00 0.00 0.00 0.00 0.00 0.00 0.00 0.01 0.00 0.01 0.02 0.07 0.07 0.05 0.05 0.08 0.13 0.07
0.00 0.00 0.00 0.00 0.00 0.01 0.00 0.00 0.00 0.00 0.00 0.04 0.06 0.01 0.00 0.00 0.00 0.00 0.00 0.00 0.00 0.00 0.00 0.00 0.00 0.00 0.00 0.00 0.00 0.00 0.00 0.00 0.02 0.05 0.06 0.05 0.04 0.11 0.10 0.08 0.07 0.10 0.06
0.00 0.00 0.00 0.00 0.00 0.00 0.00 0.02 0.02 0.04 0.06 0.08 0.04 0.00 0.01 0.01 0.00 0.00 0.00 0.00 0.00 0.00 0.00 0.00 0.00 0.00 0.00 0.00 0.00 0.00 0.00 0.00 0.00 0.02 0.06 0.08 0.08 0.05 0.04 0.11 0.06 0.07 0.10
0.00 0.00 0.00 0.00 0.00 0.00 0.00 0.04 0.09 0.11 0.11 0.10 0.00 0.02 0.01 0.01 0.01 0.00 0.00 0.00 0.00 0.00 0.00 0.00 0.00 0.00 0.00 0.00 0.00 0.00 0.00 0.00 0.00 0.01 0.04 0.07 0.08 0.07 0.05 0.10 0.10 0.07 0.09
0.00 0.00 0.00 0.00 0.00 0.00 0.00 0.04 0.14 0.16 0.05 0.09 0.01 0.00 0.00 0.00 0.00 0.01 0.00 0.00 0.00 0.00 0.00 0.00 0.00 0.00 0.00 0.00 0.00 0.00 0.00 0.00 0.00 0.00 0.01 0.03 0.05 0.08 0.12 0.12 0.12 0.06 0.06
0.00 0.00 0.00 0.00 0.00 0.00 0.00 0.02 0.15 0.13 0.01 0.01 0.00 0.00 0.00 0.00 0.00 0.00 0.00 0.00 0.00 0.00 0.00 0.00 0.00 0.00 0.00 0.00 0.00 0.00 0.00 0.00 0.00 0.00 0.00 0.00 0.02 0.03 0.09 0.16 0.19 0.15 0.07
0.00 0.00 0.00 0.00 0.00 0.00 0.00 0.02 0.09 0.01 0.00 0.00 0.00 0.00 0.00 0.00 0.00 0.00 0.00 0.00 0.00 0.00 0.00 0.00 0.00 0.00 0.00 0.00 0.00 0.00 0.00 0.00 0.00 0.00 0.00 0.00 0.00 0.01 0.03 0.09 0.10 0.08 0.04
0.00 0.00 0.00 0.00 0.00 0.00 0.00 0.01 0.07 0.00 0.00 0.00 0.00 0.00 0.00 0.00 0.00 0.00 0.00 0.00 0.00 0.00 0.00 0.00 0.00 0.00 0.00 0.00 0.01 0.00 0.00 0.00 0.00 0.00 0.00 0.00 0.00 0.00 0.00 0.02 0.08 0.04 0.02
0.00 0.00 0.00 0.00 0.00 0.01 0.01 0.00 0.01 0.00 0.00 0.00 0.00 0.00 0.00 0.00 0.00 0.00 0.00 0.00 0.00 0.00 0.00 0.00 0.00 0.00 0.00 0.00 0.01 0.00 0.00 0.00 0.00 0.00 0.00 0.00 0.00 0.00 0.00 0.01 0.03 0.05 0.05
0.00 0.00 0.00 0.00 0.00 0.04 0.02 0.00 0.00 0.00 0.00 0.00 0.00 0.00 0.00 0.00 0.00 0.00 0.00 0.00 0.00 0.00 0.00 0.00 0.00 0.00 0.00 0.00 0.02 0.00 0.00 0.00 0.00 0.00 0.00 0.00 0.00 0.00 0.00 0.00 0.00 0.01 0.11
0.00 0.00 0.00 0.00 0.00 0.03 0.00 0.00 0.00 0.00 0.00 0.00 0.00 0.00 0.00 0.00 0.00 0.00 0.00 0.00 0.00 0.00 0.00 0.00 0.00 0.00 0.00 0.00 0.00 0.00 0.00 0.00 0.00 0.00 0.00 0.00 0.00 0.00 0.00 0.00 0.00 0.00 0.01
0.00 0.00 0.00 0.00 0.00 0.01 0.00 0.00 0.00 0.00 0.00 0.00 0.00 0.00 0.00 0.00 0.00 0.00 0.00 0.00 0.00 0.00 0.00 0.00 0.00 0.00 0.00 0.00 0.00 0.00 0.00 0.00 0.00 0.00 0.00 0.00 0.00 0.00 0.00 0.00 0.00 0.00 0.00
0.00 0.00 0.00 0.00 0.00 0.00 0.00 0.00 0.00 0.00 0.01 0.00 0.00 0.00 0.00 0.00 0.00 0.00 0.00 0.00 0.00 0.00 0.00 0.00 0.00 0.00 0.00 0.00 0.00 0.00 0.00 0.00 0.00 0.00 0.00 0.00 0.00 0.00 0.00 0.00 0.00 0.00 0.00
0.00 0.00 0.00 0.00 0.00 0.00 0.00 0.00 0.00 0.00 0.00 0.00 0.00 0.00 0.00 0.00 0.00 0.00 0.00 0.00 0.00 0.00 0.00 0.00 0.00 0.00 0.00 0.00 0.00 0.00 0.00 0.00 0.00 0.00 0.00 0.00 0.00 0.00 0.00 0.00 0.00 0.00 0.00
0.00 0.00 0.00 0.00 0.00 0.00 0.00 0.00 0.00 0.00 0.00 0.00 0.00 0.00 0.00 0.00 0.00 0.00 0.00 0.00 0.00 0.00 0.00 0.00 0.00 0.00 0.00 0.00 0.00 0.00 0.00 0.00 0.00 0.00 0.00 0.00 0.00 0.00 0.00 0.00 0.00 0.00 0.00
0.00 0.00 0.00 0.00 0.00 0.00 0.00 0.00 0.00 0.00 0.01 0.00 0.00 0.00 0.00 0.00 0.00 0.00 0.00 0.00 0.00 0.00 0.00 0.00 0.00 0.00 0.00 0.00 0.00 0.00 0.00 0.00 0.00 0.00 0.00 0.00 0.00 0.00 0.00 0.00 0.00 0.00 0.00
0.00 0.00 0.00 0.00 0.00 0.00 0.00 0.00 0.00 0.00 0.02 0.00 0.00 0.00 0.00 0.00 0.00 0.00 0.00 0.00 0.00 0.00 0.00 0.00 0.00 0.00 0.00 0.00 0.00 0.00 0.00 0.00 0.00 0.00 0.00 0.00 0.00 0.00 0.00 0.00 0.00 0.00 0.00
0.00 0.00 0.00 0.00 0.00 0.00 0.00 0.00 0.00 0.00 0.01 0.01 0.00 0.00 0.00 0.00 0.00 0.00 0.00 0.00 0.00 0.00 0.00 0.00 0.00 0.00 0.00 0.00 0.00 0.00 0.00 0.00 0.00 0.00 0.00 0.00 0.00 0.00 0.00 0.00 0.00 0.00 0.00
0.00 0.00 0.00 0.00 0.00 0.00 0.00 0.00 0.00 0.00 0.01 0.02 0.00 0.00 0.00 0.00 0.00 0.00 0.00 0.00 0.00 0.00 0.00 0.00 0.00 0.00 0.00 0.00 0.00 0.00 0.00 0.00 0.00 0.00 0.00 0.00 0.00 0.00 0.00 0.00 0.00 0.00 0.00
0.00 0.00 0.00 0.00 0.00 0.00 0.00 0.00 0.00 0.00 0.01 0.03 0.00 0.00 0.00 0.00 0.00 0.00 0.00 0.00 0.00 0.00 0.00 0.00 0.00 0.00 0.00 0.00 0.00 0.00 0.00 0.00 0.00 0.00 0.00 0.00 0.00 0.00 0.00 0.00 0.00 0.00 0.00
0.00 0.00 0.00 0.00 0.00 0.00 0.00 0.00 0.00 0.00 0.01 0.01 0.00 0.00 0.00 0.00 0.00 0.00 0.00 0.00 0.00 0.00 0.00 0.00 0.00 0.00 0.00 0.00 0.00 0.00 0.00 0.00 0.00 0.00 0.00 0.00 0.00 0.00 0.00 0.00 0.00 0.01 0.01
MSLP
1016.46 1016.31 1016.19 1016.02 1016.07 1015.81 1015.59 1015.39 1015.14 1014.95 1014.79 1014.39 1014.04 1013.81 1013.43 1013.15 1013.16 1013.05 1013.20 1014.05 1014.03 1013.99 1013.85 1013.64 1013.70 1013.63 1013.61 1013.55 1013.72 1013.84 1013.91 1014.07 1014.75 1015.37 1015.79 1016.30 1016.52 1016.49 1016.49 1016.67 1017.08 1017.52 1017.97
1016.41 1016.23 1015.93 1015.82 1015.51 1015.36 1015.25 1015.17 1015.19 1015.08 1014.56 1014.24 1014.15 1013.84 1013.56 1013.33 1013.46 1013.43 1013.37 1013.52 1013.85 1013.63 1013.61 1013.50 1013.52 1013.35 1013.17 1013.37 1012.77 1012.77 1012.71 1013.89 1013.88 1014.76 1015.30 1015.81 1016.24 1016.83 1016.25 1016.34 1016.48 1017.00 1017.39
1016.51 1016.52 1016.15 1015.84 1015.49 1015.42 1015.33 1014.97 1014.81 1014.56 1014.45 1014.50 1014.48 1013.98 1013.73 1013.91 1013.79 1013.83 1013.67 1013.63 1013.49 1013.73 1013.87 1013.55 1013.38 1013.12 1013.15 1013.34 1013.29 1013.08 1013.65 1013.63 1014.62 1015.62 1014.60 1014.91 1015.00 1015.17 1015.53 1016.09 1016.20 1016.36 1016.91
1016.63 1016.60 1016.13 1015.61 1015.46 1015.35 1015.29 1015.19 1015.05 1014.76 1014.63 1014.43 1014.29 1014.09 1014.02 1014.08 1014.04 1013.99 1013.79 1013.81 1013.64 1013.64 1013.87 1013.86 1013.57 1013.17 1013.37 1013.78 1014.13 1014.17 1014.52 1014.64 1014.87 1015.01 1014.92 1015.23 1014.53 1015.15 1015.43 1014.71 1015.36 1015.78 1016.35
1016.15 1016.18 1015.68 1015.47 1015.53 1015.29 1015.39 1015.43 1015.25 1015.20 1014.55 1014.26 1014.20 1014.13 1014.17 1014.21 1014.31 1014.07 1014.09 1014.23 1014.35 1014.34 1014.13 1014.27 1013.90 1013.69 1013.59 1013.71 1013.90 1014.19 1014.13 1014.16 1014.41 1014.23 1014.23 1014.74 1014.55 1014.65 1014.81 1014.69 1014.20 1014.63 1015.71
1015.73 1015.79 1015.62 1015.62 1015.61 1015.49 1015.30 1015.29 1015.33 1015.06 1014.87 1014.59 1014.43 1014.31 1014.52 1014.81 1014.88 1014.81 1014.69 1014.52 1014.79 1014.82 1014.69 1014.49 1014.19 1014.22 1014.35 1014.33 1014.34 1014.27 1014.06 1013.89 1013.58 1013.53 1013.91 1013.78 1013.69 1014.07 1014.34 1013.15 1013.80 1011.75 1015.47
1015.63 1015.74 1015.54 1015.51 1015.38 1015.44 1015.30 1015.33 1015.29 1015.06 1014.53 1014.68 1014.47 1014.25 1014.44 1014.92 1015.23 1015.27 1015.03 1015.00 1015.23 1015.30 1015.59 1015.23 1014.87 1014.75 1014.69 1014.75 1014.83 1014.76 1014.49 1014.21 1013.88 1013.64 1013.47 1013.12 1013.26 1013.31 1013.53 1013.17 1013.92 1014.36 1014.87
1015.50 1015.49 1015.49 1015.37 1015.41 1015.27 1015.27 1015.27 1015.47 1015.25 1015.08 1014.98 1014.54 1014.23 1013.99 1015.15 1015.65 1015.59 1015.72 1015.83 1015.85 1016.26 1016.00 1015.67 1015.62 1015.53 1015.31 1015.00 1015.24 1015.27 1015.16 1014.83 1014.33 1013.80 1013.46 1013.03 1013.05 1013.17 1013.36 1013.42 1014.00 1014.63 1015.62
1015.29 1015.30 1015.23 1015.15 1015.20 1015.28 1015.05 1015.21 1015.24 1015.24 1014.99 1014.88 1014.93 1014.91 1014.31 1014.26 1015.22 1016.06 1016.11 1016.35 1016.14 1016.13 1016.13 1015.97 1016.14 1015.92 1015.92 1015.66 1015.34 1015.33 1015.56 1015.32 1014.92 1014.42 1013.89 1013.51 1012.93 1013.26 1013.43 1013.59 1013.95 1014.75 1015.21
1015.17 1015.13 1015.09 1015.02 1015.09 1015.15 1015.21 1015.02 1015.19 1015.09 1015.19 1014.89 1014.89 1015.19 1015.48 1015.45 1014.88 1015.34 1016.01 1016.18 1016.41 1016.35 1016.47 1016.24 1016.14 1016.17 1016.09 1015.95 1015.97 1016.31 1016.17 1015.70 1015.49 1015.17 1014.69 1014.07 1013.66 1013.19 1013.57 1013.88 1014.12 1014.63 1015.05
1015.20 1015.07 1015.12 1015.05 1015.07 1015.09 1015.18 1015.19 1015.20 1015.21 1015.26 1015.17 1015.09 1015.16 1015.34 1015.46 1015.52 1015.15 1014.95 1015.60 1016.35 1016.26 1016.32 1016.32 1016.41 1016.33 1016.49 1016.43 1016.13 1016.35 1016.67 1016.44 1016.03 1015.88 1015.55 1015.10 1014.59 1013.99 1013.83 1014.07 1014.40 1014.85 1015.54
1015.38 1015.29 1015.11 1014.99 1015.01 1015.17 1015.18 1015.19 1015.29 1015.49 1015.51 1015.62 1015.53 1015.48 1015.36 1015.25 1015.18 1015.14 1015.03 1015.30 1015.64 1016.09 1016.31 1016.47 1016.57 1016.53 1016.68 1016.61 1016.55 1016.83 1016.88 1016.87 1016.74 1016.40 1016.15 1015.84 1015.32 1014.85 1014.59 1014.52 1014.73 1015.16 1015.77
1015.37 1015.40 1015.24 1015.12 1015.11 1015.21 1015.22 1015.28 1015.47 1015.68 1015.87 1015.86 1015.91 1015.77 1015.79 1015.76 1015.59 1015.51 1015.34 1015.37 1015.51 1015.87 1016.15 1016.45 1016.66 1016.69 1016.51 1016.77 1016.80 1017.02 1017.21 1017.15 1017.07 1016.87 1016.55 1016.29 1016.03 1015.71 1015.51 1015.50 1015.37 1015.69 1016.03
1015.57 1015.55 1015.35 1015.15 1015.15 1015.26 1015.35 1015.50 1015.80 1015.98 1016.23 1016.33 1016.46 1016.62 1016.46 1016.44 1016.32 1016.25 1015.96 1015.81 1015.38 1015.53 1015.95 1016.18 1016.69 1016.70 1016.71 1016.77 1017.05 1017.37 1017.21 1017.61 1017.58 1017.45 1017.09 1016.89 1016.68 1016.56 1016.37 1016.25 1016.31 1016.35 1016.58
1015.61 1015.52 1015.30 1015.45 1015.31 1015.13 1015.31 1015.89 1016.04 1016.33 1016.63 1016.73 1016.92 1016.97 1016.85 1016.93 1016.83 1016.69 1016.53 1016.37 1016.01 1015.34 1015.26 1016.34 1016.37 1017.02 1016.89 1016.72 1017.30 1017.27 1017.61 1018.21 1018.29 1018.31 1018.09 1017.59 1017.28 1017.15 1017.15 1017.10 1017.26 1017.12 1017.17
1015.74 1015.61 1015.52 1015.52 1015.38 1015.39 1015.62 1016.03 1016.43 1016.89 1016.97 1017.00 1017.05 1017.24 1017.29 1017.25 1017.07 1016.97 1016.77 1016.65 1016.51 1016.28 1015.80 1016.49 1016.77 1017.28 1017.22 1016.93 1017.57 1017.54 1017.97 1017.99 1018.28 1018.42 1018.58 1018.57 1018.24 1017.89 1017.80 1017.93 1017.99 1017.94 1018.20
1015.70 1015.63 1015.55 1015.47 1015.37 1015.38 1015.68 1016.13 1016.65 1017.00 1017.13 1017.35 1017.37 1017.49 1017.71 1017.68 1017.41 1017.30 1017.15 1017.07 1016.87 1016.72 1016.23 1016.71 1017.06 1017.43 1017.50 1017.45 1017.52 1017.70 1018.03 1018.08 1018.32 1018.54 1018.63 1018.75 1018.87 1018.83 1018.71 1018.59 1018.64 1018.76 1018.91
1015.36 1015.52 1015.44 1015.35 1015.34 1015.32 1015.65 1016.04 1016.52 1017.07 1017.25 1017.25 1017.59 1017.82 1018.07 1018.04 1017.96 1018.00 1017.77 1017.81 1017.67 1017.61 1017.04 1016.74 1017.28 1017.29 1017.52 1017.77 1017.71 1017.71 1018.13 1018.14 1018.06 1018.54 1018.74 1019.00 1019.14 1019.27 1019.29 1019.28 1019.26 1019.43 1019.56
1014.77 1015.04 1015.17 1015.09 1015.03 1015.07 1015.37 1015.93 1016.39 1016.89 1017.35 1017.47 1017.75 1017.94 1018.29 1018.36 1018.47 1018.40 1018.30 1018.08 1018.04 1017.93 1017.49 1017.19 1017.19 1017.50 1017.57 1017.79 1017.59 1017.74 1018.28 1018.51 1018.57 1018.83 1019.09 1019.30 1019.47 1019.47 1019.51 1019.60 1019.68 1019.83 1020.11
1014.15 1014.46 1014.66 1014.69 1014.63 1014.69 1015.12 1015.79 1016.28 1017.09 1017.52 1017.81 1018.11 1018.33 1018.58 1018.69 1018.85 1018.84 1018.75 1018.58 1018.45 1017.96 1017.96 1017.61 1017.51 1017.51 1017.66 1017.95 1017.82 1017.57 1017.80 1018.69 1018.89 1019.27 1019.40 1019.56 1019.74 1019.68 1019.73 1019.79 1019.94 1020.23 1020.49
1013.35 1013.84 1014.15 1014.21 1014.20 1014.37 1014.81 1015.60 1016.40 1017.13 1017.63 1018.01 1018.43 1018.71 1018.83 1019.08 1019.36 1019.24 1018.85 1018.97 1018.63 1018.30 1018.06 1017.93 1017.95 1018.19 1018.69 1018.61 1018.64 1018.57 1018.46 1018.69 1019.33 1019.44 1019.59 1019.65 1019.82 1019.70 1019.89 1020.03 1020.11 1020.43 1020.87
1012.83 1013.14 1013.55 1013.66 1013.71 1013.88 1014.56 1015.46 1016.11 1016.95 1017.65 1017.97 1018.27 1018.63 1019.06 1019.42 1019.67 1019.75 1019.75 1019.71 1019.59 1019.31 1019.17 1018.57 1018.58 1019.13 1019.31 1019.13 1018.92 1018.58 1018.42 1018.28 1019.11 1019.44 1019.61 1019.79 1019.89 1020.02 1020.26 1020.16 1020.23 1020.55 1021.02
1012.23 1012.46 1012.84 1013.15 1013.27 1013.73 1014.65 1015.33 1016.05 1016.74 1017.45 1017.99 1018.32 1018.55 1018.81 1019.37 1019.60 1019.73 1020.04 1020.09 1020.20 1020.16 1020.00 1019.41 1019.24 1019.59 1019.52 1019.39 1019.21 1018.68 1018.74 1018.84 1019.45 1019.60 1019.58 1019.80 1019.96 1020.11 1020.21 1020.43 1020.49 1020.64 1021.02
1011.50 1011.83 1012.21 1012.56 1013.02 1013.53 1014.50 1015.31 1016.00 1016.74 1017.45 1017.77 1018.12 1018.49 1018.62 1019.31 1019.43 1019.59 1019.67 1019.77 1020.00 1020.33 1020.10 1019.68 1019.70 1019.72 1019.80 1019.43 1018.95 1018.75 1018.75 1019.08 1019.65 1019.81 1019.60 1019.86 1020.29 1020.31 1020.32 1020.52 1020.66 1020.87 1021.18
1010.97 1011.38 1011.77 1012.03 1012.67 1013.72 1014.59 1015.21 1015.93 1016.43 1017.25 1017.73 1018.14 1018.56 1018.91 1019.31 1019.68 1019.90 1019.85 1019.80 1019.87 1020.32 1020.81 1020.66 1020.72 1020.40 1020.13 1019.91 1019.54 1018.86 1018.85 1018.83 1019.42 1019.93 1020.00 1020.01 1020.47 1020.49 1020.43 1020.43 1020.68 1021.07 1021.37
1010.28 1010.87 1011.43 1011.75 1012.21 1013.33 1014.52 1014.93 1015.41 1016.03 1016.94 1017.64 1018.15 1018.54 1019.01 1019.32 1019.80 1020.06 1019.88 1019.88 1019.75 1019.96 1020.06 1020.05 1020.06 1019.81 1019.53 1019.76 1019.91 1019.85 1019.60 1019.33 1019.52 1019.93 1020.35 1020.29 1020.45 1020.55 1020.47 1020.53 1020.97 1021.32 1021.63
Thickness
5771 5772 5774 5774 5773 5776 5777 5778 5779 5778 5777 5777 5777 5776 5776 5776 5774 5772 5768 5758 5753 5748 5743 5739 5734 5726 5723 5721 5716 5712 5712 5704 5695 5695 5695 5693 5693 5695 5700 5703 5703 5705 5706
5775 5777 5778 5779 5781 5782 5782 5782 5780 5780 5780 5779 5777 5776 5776 5776 5772 5769 5766 5760 5752 5746 5738 5732 5724 5718 5716 5709 5705 5715 5705 5685 5690 5687 5684 5686 5684 5680 5693 5698 5700 5701 5703
5777 5777 5780 5783 5785 5785 5784 5785 5784 5784 5782 5778 5775 5777 5776 5772 5769 5764 5762 5756 5752 5741 5730 5724 5718 5714 5708 5699 5697 5694 5673 5681 5674 5659 5676 5675 5682 5688 5692 5692 5696 5699 5700
5779 5779 5783 5787 5787 5786 5785 5784 5783 5783 5781 5780 5778 5778 5775 5769 5764 5761 5759 5753 5748 5736 5726 5718 5713 5711 5704 5692 5683 5678 5674 5675 5672 5667 5664 5668 5676 5675 5678 5695 5696 5697 5698
5785 5785 5788 5789 5787 5787 5784 5782 5781 5778 5780 5780 5778 5775 5771 5766 5760 5757 5752 5744 5736 5729 5721 5711 5707 5703 5699 5693 5687 5679 5678 5677 5671 5669 5668 5669 5672 5673 5675 5681 5697 5703 5699
5792 5790 5790 5789 5787 5786 5785 5783 5779 5781 5779 5778 5775 5770 5765 5757 5751 5747 5742 5738 5732 5723 5715 5707 5701 5695 5689 5683 5678 5674 5672 5671 5673 5671 5665 5669 5669 5669 5672 5687 5695 5697 5693
5795 5793 5792 5789 5789 5786 5785 5783 5781 5778 5779 5776 5770 5767 5762 5755 5747 5742 5738 5734 5725 5716 5705 5697 5692 5686 5680 5676 5671 5667 5665 5664 5664 5665 5665 5668 5669 5670 5671 5682 5686 5691 5690
5795 5795 5794 5793 5789 5788 5786 5783 5779 5775 5774 5772 5764 5763 5756 5746 5741 5739 5733 5726 5719 5707 5699 5691 5681 5676 5672 5671 5665 5659 5655 5655 5657 5661 5663 5667 5668 5669 5673 5677 5680 5685 5682
5798 5796 5796 5795 5793 5789 5787 5784 5781 5776 5770 5771 5766 5756 5752 5746 5739 5731 5727 5720 5715 5707 5696 5687 5676 5671 5665 5662 5660 5656 5649 5648 5651 5654 5657 5662 5666 5666 5670 5674 5679 5679 5683
5799 5798 5798 5796 5793 5791 5787 5786 5782 5778 5771 5766 5766 5759 5751 5744 5739 5729 5725 5720 5712 5704 5692 5684 5674 5665 5660 5657 5652 5645 5643 5643 5642 5644 5648 5655 5659 5666 5666 5670 5672 5675 5680
5799 5799 5797 5796 5794 5792 5788 5784 5781 5776 5774 5769 5764 5758 5752 5746 5740 5734 5727 5720 5710 5704 5694 5683 5671 5662 5654 5648 5645 5642 5637 5635 5636 5636 5639 5644 5650 5659 5664 5663 5667 5668 5670
5799 5798 5797 5797 5794 5791 5788 5784 5781 5777 5774 5769 5764 5759 5752 5746 5740 5735 5728 5721 5711 5701 5692 5680 5670 5660 5650 5645 5640 5634 5632 5632 5629 5630 5633 5636 5643 5650 5655 5660 5661 5661 5661
5797 5797 5798 5796 5795 5790 5787 5784 5781 5777 5772 5768 5763 5758 5753 5746 5742 5736 5729 5719 5709 5701 5689 5679 5668 5659 5650 5641 5634 5628 5624 5624 5626 5625 5627 5631 5634 5639 5644 5648 5652 5654 5656
5796 5797 5797 5795 5794 5791 5788 5784 5781 5777 5771 5766 5759 5752 5748 5742 5738 5731 5725 5716 5709 5699 5688 5676 5666 5657 5647 5635 5625 5620 5618 5613 5613 5617 5620 5621 5624 5627 5633 5637 5640 5643 5645
5798 5797 5796 5794 5795 5793 5790 5785 5782 5776 5769 5764 5757 5751 5746 5740 5735 5729 5721 5713 5705 5696 5690 5673 5663 5650 5640 5633 5621 5615 5607 5600 5599 5598 5602 5610 5614 5617 5620 5624 5627 5633 5636
5794 5795 5795 5795 5796 5795 5792 5786 5780 5773 5768 5763 5758 5751 5744 5738 5733 5726 5719 5710 5701 5692 5683 5670 5658 5644 5633 5626 5614 5607 5599 5595 5591 5590 5590 5591 5597 5604 5609 5611 5615 5621 5623
5793 5793 5795 5796 5796 5795 5793 5787 5779 5773 5767 5761 5756 5750 5741 5735 5730 5724 5716 5706 5697 5689 5680 5667 5655 5640 5628 5619 5610 5601 5594 5589 5583 5580 5580 5581 5583 5587 5593 5598 5602 5606 5609
5795 5793 5795 5796 5797 5797 5793 5788 5780 5773 5767 5762 5755 5747 5738 5733 5726 5718 5710 5699 5690 5681 5675 5665 5651 5639 5626 5615 5606 5598 5586 5579 5576 5571 5568 5568 5572 5575 5580 5585 5589 5592 5597
5799 5796 5795 5796 5798 5798 5795 5789 5783 5775 5767 5762 5754 5746 5737 5731 5722 5715 5706 5698 5688 5679 5672 5663 5651 5637 5626 5614 5605 5595 5581 5572 5565 5560 5558 5557 5559 5565 5570 5574 5578 5581 5584
5802 5800 5797 5798 5800 5802 5798 5790 5784 5773 5766 5760 5752 5744 5736 5729 5720 5712 5703 5694 5686 5680 5669 5661 5650 5637 5624 5612 5604 5595 5584 5568 5561 5555 5552 5550 5551 5556 5561 5565 5568 5570 5574
5807 5803 5800 5800 5802 5803 5800 5791 5783 5773 5765 5757 5748 5740 5735 5726 5716 5710 5704 5693 5685 5677 5668 5658 5646 5633 5616 5607 5597 5588 5578 5569 5559 5554 5551 5550 5550 5552 5554 5557 5559 5562 5565
5809 5806 5802 5801 5803 5805 5798 5791 5784 5774 5764 5757 5749 5742 5734 5724 5714 5706 5696 5685 5677 5668 5659 5653 5643 5625 5613 5606 5598 5592 5583 5575 5562 5555 5551 5549 5547 5548 5549 5553 5555 5557 5560
5809 5807 5806 5804 5805 5804 5794 5790 5784 5776 5765 5757 5750 5743 5736 5725 5717 5709 5695 5684 5673 5663 5655 5650 5641 5626 5615 5605 5597 5594 5584 5574 5561 5556 5553 5548 5545 5546 5547 5548 5550 5554 5558
5810 5808 5807 5806 5804 5803 5793 5788 5782 5774 5765 5759 5752 5744 5739 5727 5720 5712 5702 5690 5679 5666 5659 5652 5642 5630 5617 5607 5602 5595 5586 5575 5562 5555 5551 5547 5542 5544 5545 5546 5548 5552 5556
5810 5808 5807 5808 5803 5797 5789 5785 5781 5776 5765 5757 5751 5743 5737 5728 5717 5709 5702 5691 5681 5668 5655 5647 5638 5629 5619 5609 5601 5596 5586 5579 5566 5554 5548 5546 5541 5542 5544 5548 5550 5552 5555
5811 5808 5805 5806 5805 5797 5786 5785 5783 5777 5765 5756 5750 5743 5735 5729 5716 5708 5704 5693 5683 5672 5663 5653 5645 5636 5626 5613 5601 5591 5582 5577 5566 5556 5547 5547 5544 5544 5549 5552 5553 5554 5556